Theta_e
312 311 310 309 309 307 306 305 305 305 304 304 303 302 303 302 300 300 300 299 299 299 299 299 299 299 299 300 299 299 299 299 299 298 298 297 297 297 296 296 296 296 297 295 296 295 295 294 294 294 293 293 293 293 293 293 293 293 293 293 292 292 292 290 288 289 291 294 293 293 294 295 294 295 294 295 295 296 298 297 297 297 297 297 297
310 309 309 308 307 306 305 305 304 304 303 303 302 302 300 300 300 299 298 298 298 298 298 299 298 298 298 297 298 298 298 298 298 298 297 297 297 297 296 296 295 295 295 294 295 295 294 293 293 294 294 292 293 292 292 292 292 292 292 292 291 292 292 290 289 289 288 292 292 294 293 295 292 294 294 294 294 296 295 295 297 296 296 297 297
309 309 307 306 305 305 304 303 303 303 302 301 301 300 299 299 299 297 297 297 298 298 297 297 297 297 297 297 297 297 298 298 298 298 297 297 296 296 296 295 295 295 294 294 294 294 294 294 293 293 294 292 292 292 292 292 292 292 292 292 291 292 292 292 290 288 288 289 292 291 292 293 292 292 293 294 295 295 294 295 295 295 296 297 297
308 307 305 304 304 304 303 303 302 302 301 300 299 299 298 298 299 297 296 296 296 297 296 296 297 296 296 296 296 296 296 297 297 297 297 296 296 296 295 295 295 295 295 294 294 294 293 293 293 293 293 292 291 292 292 292 292 292 292 292 292 291 292 292 292 290 289 288 290 290 291 291 292 293 293 294 294 294 294 294 295 295 295 296 296
307 306 304 303 303 303 302 302 301 301 300 299 298 298 297 297 298 296 296 295 295 296 297 296 295 295 295 295 295 295 296 296 296 296 297 296 296 295 295 295 295 295 295 294 298 294 295 294 293 293 292 292 292 292 292 292 292 293 292 292 292 292 292 292 291 291 289 288 289 291 291 291 292 293 294 292 293 293 294 294 294 294 295 296 296
306 305 304 303 303 302 301 301 300 299 299 298 297 297 297 297 296 296 296 295 294 295 295 295 296 294 294 294 294 294 295 296 296 296 296 296 296 296 296 296 296 296 296 296 294 295 294 294 294 293 293 292 292 292 292 292 293 292 292 292 292 292 291 291 291 291 290 289 289 288 291 290 290 292 293 293 291 291 292 293 294 295 294 294 295
306 305 304 303 302 301 301 300 299 299 299 297 297 296 296 295 295 295 296 294 294 294 294 294 295 293 293 293 293 294 294 294 295 295 295 295 296 296 295 295 295 295 295 295 295 294 294 294 295 293 293 293 294 293 293 293 293 293 293 292 292 291 291 290 290 290 289 288 288 289 289 290 291 289 292 293 293 292 290 290 290 293 294 293 293
305 304 303 302 301 301 300 299 299 299 298 297 296 296 295 295 295 295 295 293 293 293 293 293 294 293 293 293 293 294 293 293 293 293 294 295 296 296 296 296 295 295 295 295 295 295 294 294 294 294 294 294 296 297 296 294 294 293 293 293 292 291 290 290 289 289 288 288 287 287 288 288 290 291 292 292 290 291 292 290 288 289 291 293 294
304 303 302 301 301 300 299 299 299 299 298 296 295 295 295 294 294 294 294 294 294 292 292 292 292 292 292 293 293 293 293 293 293 293 293 293 294 295 296 296 295 295 294 293 293 294 295 296 294 294 300 299 299 299 297 296 295 293 293 293 293 291 290 290 289 288 288 287 287 288 288 288 289 289 288 289 288 288 290 291 290 291 291 291 293
303 302 301 301 300 299 299 299 299 297 296 295 295 294 294 294 293 293 292 292 292 292 291 292 292 292 292 292 293 293 294 295 298 296 296 295 294 294 295 295 295 295 295 295 294 295 295 293 297 299 298 298 298 296 294 294 295 295 294 294 292 291 290 289 288 288 288 287 287 287 286 286 287 288 288 289 290 291 290 290 288 290 291 291 292
303 302 301 300 300 299 299 298 298 297 296 295 294 294 294 293 292 292 291 291 291 293 291 291 291 291 292 292 292 293 293 296 295 294 294 295 295 295 296 295 295 295 295 294 294 298 295 293 293 297 296 296 297 295 293 293 293 293 293 294 294 293 291 289 288 289 287 287 287 287 286 286 287 289 289 289 290 290 289 290 289 289 289 287 287
303 302 301 300 299 299 298 298 297 296 296 295 294 294 293 292 292 291 291 291 291 291 290 290 290 291 291 291 292 293 294 296 292 293 293 294 296 295 294 294 294 294 293 293 295 295 295 295 294 294 295 297 296 293 293 293 292 292 292 292 292 291 291 290 289 288 288 287 287 287 287 287 287 288 289 289 289 289 290 290 289 289 289 288 289
302 301 300 299 299 298 298 297 297 296 295 295 294 293 292 291 291 290 290 291 290 289 289 289 290 290 291 291 292 294 293 294 292 293 293 293 293 294 294 293 294 293 293 293 292 293 294 296 295 294 293 296 295 292 292 292 293 292 292 292 291 292 289 289 290 291 290 289 287 287 288 288 287 288 290 290 291 289 289 289 289 290 290 289 290
302 300 299 299 298 298 298 297 296 296 295 294 293 292 291 291 290 290 291 290 289 288 289 289 289 290 291 291 291 291 292 294 292 292 292 292 292 293 292 293 293 292 293 293 293 293 294 295 293 294 293 292 293 293 292 291 291 291 290 290 290 290 290 290 290 290 291 290 289 287 289 290 288 289 291 292 290 289 288 288 290 290 290 290 292
301 300 299 298 298 298 297 297 296 296 295 293 292 291 291 290 290 290 289 288 288 288 288 289 290 291 291 290 291 291 293 292 291 291 291 291 291 292 292 293 292 292 292 292 293 294 293 293 293 293 292 291 294 293 292 291 291 290 290 289 289 289 289 290 291 291 291 291 290 290 290 291 291 291 292 292 292 291 291 291 291 291 292 293 293
301 299 298 298 298 298 298 297 297 296 294 293 291 291 290 290 289 289 289 288 288 288 288 290 290 289 289 290 290 289 291 291 291 291 291 291 292 293 291 292 292 292 292 292 292 292 293 294 294 293 291 290 293 291 291 293 291 289 289 289 288 289 290 291 291 291 292 291 291 291 291 292 291 292 293 292 292 293 293 293 293 292 291 290 288
300 299 298 298 298 298 298 297 297 295 294 292 291 290 290 289 289 290 288 288 288 288 289 289 289 288 289 290 289 289 290 292 290 291 291 290 291 290 291 291 291 291 291 291 291 292 292 296 294 292 291 291 292 290 290 292 290 289 288 288 288 288 289 290 290 290 290 290 290 290 290 290 290 290 290 291 292 293 292 290 289 290 289 287 288
300 299 298 298 298 298 298 298 297 296 294 292 291 290 290 290 289 290 288 288 288 288 289 288 288 289 289 288 289 289 289 291 291 291 291 290 291 290 290 290 289 291 290 291 290 290 292 297 297 293 291 292 291 289 290 292 290 289 288 287 287 287 288 289 289 290 290 290 290 289 290 290 290 291 291 291 291 293 291 288 289 290 288 288 286
300 299 299 299 299 299 299 299 298 296 295 293 292 291 290 290 291 290 289 289 288 288 291 287 287 288 288 289 295 290 289 292 291 290 291 291 291 288 289 289 290 288 288 290 290 289 290 292 294 293 293 292 289 289 289 291 291 290 288 287 287 287 288 288 288 288 289 289 289 290 290 291 292 292 292 291 291 293 293 291 291 290 288 288 288
301 300 299 299 299 299 299 299 298 297 295 294 294 292 292 292 290 289 289 289 289 289 289 288 287 288 290 292 293 289 289 290 292 290 291 291 290 289 288 290 290 289 289 293 290 290 289 290 292 290 289 289 289 289 289 289 291 291 289 288 288 287 289 289 289 290 288 288 288 289 290 291 291 291 291 292 293 293 292 292 292 291 290 289 289
301 300 299 299 299 299 299 299 298 297 296 295 295 294 293 291 290 289 289 289 289 288 288 288 288 288 289 289 288 288 290 289 291 290 291 291 291 290 288 289 288 288 288 290 287 288 289 290 290 291 289 289 289 289 289 289 290 292 290 289 289 290 290 289 289 289 288 288 288 288 289 289 290 290 290 291 291 291 292 292 293 293 291 290 288
300 299 298 298 298 298 298 298 298 297 297 296 295 294 294 293 291 290 290 289 289 288 288 289 288 288 288 289 289 288 293 296 288 291 290 290 290 291 290 291 289 288 288 288 287 288 288 289 290 291 289 289 289 289 289 289 289 293 291 288 288 288 289 290 289 288 287 287 287 287 288 288 288 288 289 289 290 291 291 292 293 293 293 293 291
300 299 298 298 298 298 298 298 298 298 297 296 295 294 294 293 292 291 290 289 289 289 289 289 289 288 288 289 289 289 288 292 293 292 291 290 290 290 290 289 289 293 289 292 289 289 288 289 290 291 289 289 289 289 289 289 290 291 288 288 288 288 289 288 288 287 287 287 287 286 287 287 287 287 288 288 289 290 291 292 293 293 294 293 294
300 299 298 298 298 298 298 298 298 298 297 297 296 294 294 294 293 291 290 290 289 289 289 289 289 289 289 289 290 290 290 289 292 292 292 290 290 289 289 289 289 291 290 289 288 288 288 288 290 289 289 289 289 289 289 289 290 288 288 288 288 289 288 288 287 286 286 286 286 286 286 286 286 286 287 288 288 290 291 292 292 293 293 293 293
299 299 298 298 298 298 298 298 298 297 297 297 295 295 294 294 292 292 291 291 291 290 289 289 289 289 289 290 290 290 290 290 288 290 290 290 289 289 288 289 288 289 290 291 292 291 290 289 288 288 289 288 288 289 289 289 288 288 288 288 290 288 288 287 287 286 286 285 285 285 286 286 286 287 288 289 290 291 291 291 292 293 294 293 293
298 298 298 298 298 298 297 297 297 297 297 297 296 296 295 294 294 292 292 292 291 291 290 290 290 289 290 290 290 291 290 290 290 289 293 292 290 289 289 289 290 290 291 290 289 289 288 288 288 289 289 289 291 290 290 290 289 288 288 289 288 287 287 287 287 286 285 285 285 285 285 286 286 287 288 289 289 289 289 289 290 291 292 292 291
298 298 298 298 298 298 297 296 296 296 296 296 296 296 296 295 294 293 293 292 291 291 290 290 290 289 290 289 290 290 291 290 290 289 288 289 289 291 290 290 291 290 291 290 290 289 289 290 290 288 288 288 288 288 287 288 288 289 288 288 288 287 287 287 287 286 286 285 285 285 285 286 287 287 287 287 287 288 289 289 289 290 291 291 290
298 298 297 297 297 297 296 293 295 295 295 296 295 295 295 295 294 293 293 293 292 291 290 290 290 290 290 290 290 290 290 290 289 289 289 288 288 286 287 289 288 287 287 286 286 289 290 288 287 288 287 289 288 288 288 288 287 287 288 287 287 287 287 287 288 287 287 285 285 286 286 286 286 286 286 286 287 288 288 288 288 289 290 291 289
298 298 297 297 296 296 296 296 296 295 295 296 296 296 295 294 294 294 295 295 294 293 291 291 292 292 292 291 290 290 290 290 292 291 291 289 289 287 286 286 286 286 288 289 291 288 287 288 288 288 287 285 286 287 287 287 288 287 287 288 288 287 287 287 287 286 286 285 285 285 285 285 285 286 286 286 286 287 288 288 288 288 290 291 289
297 297 297 296 296 296 296 296 296 296 295 295 295 294 292 294 294 294 293 293 291 291 291 292 293 293 292 293 293 293 292 293 292 290 290 289 289 288 288 287 287 287 288 288 289 287 286 286 286 286 287 287 286 285 286 286 286 286 287 287 287 287 288 287 287 286 285 285 285 285 285 285 285 285 285 285 286 287 287 287 287 288 288 288 288
297 296 296 296 295 296 296 296 297 297 296 295 294 293 292 291 290 292 292 292 291 291 291 291 291 292 294 293 293 292 292 292 290 290 290 289 288 288 287 287 288 288 288 285 284 283 284 284 286 285 284 285 283 285 285 285 284 284 286 287 287 286 285 287 287 285 284 284 285 285 285 285 285 285 285 285 285 286 287 287 287 287 287 288 288
297 296 296 296 295 295 297 296 296 295 295 295 295 293 292 291 290 288 289 291 291 291 291 291 291 291 291 293 294 293 291 290 290 289 290 289 288 288 287 287 288 288 287 288 286 285 283 284 284 285 286 285 285 284 284 285 285 285 286 285 287 286 286 287 287 286 285 285 285 284 284 285 285 284 285 285 284 285 286 286 286 286 286 287 288
298 297 296 296 295 295 296 296 295 295 295 294 294 294 293 292 291 290 287 288 289 290 290 291 290 290 291 291 292 292 292 291 290 290 290 289 288 287 288 288 288 288 287 285 285 286 284 285 286 287 286 285 287 287 287 287 287 286 286 286 286 287 288 288 285 285 284 285 285 285 285 285 284 284 284 284 284 284 285 285 286 286 286 286 286
298 297 296 296 296 296 296 296 295 296 296 295 295 294 293 293 293 292 290 289 288 288 288 289 290 290 290 290 291 291 291 290 290 290 289 288 288 287 287 287 287 287 287 286 284 285 287 286 286 286 287 286 286 286 285 286 287 286 286 287 287 287 287 287 286 286 285 285 285 285 284 285 284 284 284 284 285 285 284 284 285 285 285 285 285
298 294 291 293 297 296 297 297 296 296 296 296 294 293 293 293 293 292 292 290 290 290 290 288 288 289 290 290 290 290 290 290 290 289 289 288 288 287 287 287 285 286 287 286 286 286 286 286 287 287 287 287 287 286 287 288 288 287 287 288 288 288 287 287 286 286 286 286 286 285 285 284 285 284 283 283 284 284 284 284 284 285 284 285 285
298 297 296 295 296 297 297 297 297 297 296 296 295 294 293 293 292 292 292 291 291 291 289 290 288 288 288 289 289 289 289 289 289 289 288 287 287 287 285 284 283 284 285 286 286 286 286 286 286 287 287 287 287 287 287 287 288 288 288 288 287 288 287 287 286 286 285 285 285 284 284 285 285 284 284 284 285 284 284 284 284 284 284 285 284
298 297 296 297 297 297 297 297 297 297 292 293 293 294 293 293 292 292 292 292 291 291 291 288 287 288 287 289 289 287 287 287 287 287 287 287 287 287 287 286 285 285 285 285 285 285 285 286 286 286 286 286 287 287 287 287 288 288 288 288 287 287 287 287 286 285 286 285 285 285 284 284 284 283 283 283 284 285 285 284 284 283 283 283 283
298 297 297 297 298 298 297 298 296 290 292 293 295 294 293 293 292 291 291 291 290 289 290 288 289 289 289 289 291 287 285 285 285 286 286 286 284 286 286 286 285 285 286 286 285 285 285 286 286 286 286 287 287 287 287 287 288 288 288 288 286 286 286 286 284 285 284 283 284 285 284 284 284 283 283 283 283 284 284 284 283 283 283 283 283
298 293 291 291 293 298 297 296 293 294 293 293 294 293 291 291 291 291 291 291 290 289 289 289 288 289 290 289 288 288 287 286 286 286 286 286 286 286 286 286 286 285 285 286 286 285 286 286 286 286 286 286 287 287 287 288 288 288 288 287 287 286 285 285 285 285 284 285 285 285 284 284 284 284 283 283 284 284 283 283 284 283 283 283 283
297 295 291 290 294 294 295 293 293 293 292 293 293 293 291 290 290 290 290 289 288 288 288 288 288 288 288 287 287 286 287 287 287 287 286 286 286 286 286 286 286 286 286 286 286 287 286 286 287 287 287 287 287 287 287 287 288 287 287 286 286 287 287 286 286 286 286 286 285 285 284 285 285 283 283 284 284 284 283 283 283 283 283 283 283
296 295 291 291 293 295 294 293 293 294 293 293 293 292 291 290 290 290 290 289 288 288 288 289 289 289 288 288 288 287 289 288 288 287 287 286 286 286 286 286 286 286 286 286 287 287 287 287 287 287 287 287 288 287 288 288 287 287 287 286 286 285 287 286 285 285 285 284 284 285 285 284 284 284 286 286 285 284 283 283 284 284 284 284 284
296 294 293 294 293 295 294 293 293 292 292 292 292 292 291 290 291 291 290 289 288 288 288 288 288 288 288 288 287 287 288 288 287 287 287 287 286 286 286 286 287 287 287 287 287 287 287 287 287 287 287 287 287 287 287 287 287 287 287 287 287 287 286 287 287 285 285 285 285 285 285 284 284 284 284 285 284 284 284 284 284 284 284 284 284
296 295 295 294 295 294 293 293 293 294 292 292 292 290 291 292 291 290 289 289 289 288 288 288 288 288 287 286 287 287 287 287 285 286 286 286 286 286 286 286 287 287 287 288 288 288 288 288 288 288 287 288 289 288 288 288 288 288 288 287 287 287 287 288 287 286 285 284 285 284 284 284 284 285 285 284 284 283 284 283 284 284 284 284 284
295 294 294 294 295 295 294 294 294 293 292 291 291 291 292 292 292 291 291 290 289 288 288 289 288 288 287 287 286 286 287 287 286 286 286 286 286 286 287 287 287 287 287 287 288 288 287 287 287 288 288 288 289 289 288 289 289 288 288 288 288 287 288 288 288 288 287 287 287 286 286 285 284 284 284 284 284 284 285 284 284 284 284 285 284
295 295 295 295 295 295 294 293 293 292 290 290 292 293 290 292 292 291 290 290 289 289 289 288 288 288 288 287 287 287 287 287 287 287 287 287 287 288 288 288 288 288 288 287 288 288 287 287 287 287 287 288 289 289 289 289 289 289 289 289 288 289 289 289 290 290 288 287 288 287 287 286 286 286 285 285 284 283 285 285 284 282 284 285 284
295 295 294 295 294 294 294 294 291 293 292 292 292 293 292 292 292 291 290 290 290 289 289 289 289 288 288 288 287 287 288 288 288 288 288 288 288 289 289 289 289 289 289 289 288 288 287 287 287 287 287 288 289 289 289 289 289 289 289 289 289 289 291 291 290 288 287 287 287 288 288 286 286 285 284 286 286 284 284 284 283 283 284 284 284
296 296 294 295 295 294 294 294 293 293 294 293 293 293 293 292 292 291 290 290 290 290 290 290 289 288 288 288 288 288 288 288 288 288 288 289 289 289 289 289 289 289 289 289 288 288 287 287 287 287 287 287 289 289 290 290 290 289 289 289 289 289 290 290 288 289 289 288 287 288 287 287 287 287 285 284 284 285 284 285 285 284 285 284 284
296 295 295 295 295 295 294 294 292 290 293 293 292 293 292 292 291 291 291 290 290 290 290 289 289 289 289 289 289 289 288 288 289 289 289 289 289 290 290 289 288 289 289 288 288 288 287 287 287 287 287 287 287 288 290 290 290 290 290 290 290 289 289 286 289 290 289 288 287 287 287 287 288 287 287 285 285 286 285 286 285 285 284 284 284
296 296 295 295 295 295 294 293 292 292 293 293 291 291 291 291 291 291 291 291 290 290 291 290 290 290 289 289 289 289 289 288 288 289 289 289 289 289 289 289 288 288 288 288 288 287 288 287 287 287 287 288 288 288 289 290 290 291 291 291 289 285 284 283 285 289 286 288 287 287 287 286 286 286 286 285 285 285 285 285 284 284 285 284 284
296 295 295 295 295 295 294 294 293 294 294 293 292 291 290 290 290 290 290 290 290 289 290 290 289 290 290 289 288 288 288 288 288 288 289 289 289 289 289 289 288 288 288 288 288 288 288 288 288 288 288 288 288 288 289 289 290 290 291 291 287 286 285 283 282 283 285 288 287 287 287 287 287 287 287 287 286 285 284 285 285 284 285 285 285
294 295 295 295 296 295 295 294 293 294 294 293 292 291 290 290 290 290 290 289 289 289 289 289 290 289 289 289 289 289 288 289 289 289 289 289 289 289 288 287 288 287 288 288 288 288 288 288 288 288 288 288 288 289 289 289 289 290 288 287 286 285 284 283 286 284 282 283 287 287 287 286 286 286 286 287 286 285 285 285 285 285 285 285 285
Wind_Speed
8 8 8 9 11 10 9 8 9 8 9 9 9 8 7 7 7 6 6 6 6 6 6 6 7 7 7 7 7 7 7 7 6 7 7 7 6 6 6 7 7 6 6 5 4 5 6 6 5 4 2 4 3 3 3 4 4 3 2 3 4 3 1 3 6 10 8 4 7 9 9 10 10 9 12 11 11 10 12 10 11 10 10 9 11
8 9 8 9 10 10 9 8 8 8 9 9 9 8 8 7 7 7 7 5 5 7 7 6 6 7 7 7 7 7 7 7 6 6 7 7 6 5 6 6 6 6 5 6 5 4 4 5 4 4 3 4 4 4 4 4 4 5 4 4 4 5 2 2 5 7 13 9 7 7 9 7 10 9 10 12 12 11 13 11 9 10 10 10 11
8 9 9 9 9 9 9 9 9 10 10 8 9 8 8 7 6 8 7 6 5 6 7 6 7 7 7 7 7 7 7 7 6 7 7 7 7 6 5 6 6 6 6 6 5 4 5 5 4 3 3 5 5 5 4 5 4 4 6 4 5 5 5 3 5 7 9 11 8 10 8 8 9 13 12 10 11 11 12 12 12 11 10 11 11
9 9 9 9 10 10 9 9 10 9 10 8 9 8 8 7 6 7 7 6 7 5 6 7 7 7 7 6 7 7 7 6 6 6 7 7 7 7 5 5 5 5 6 5 4 4 5 4 2 3 3 6 5 5 5 5 5 5 5 5 4 6 6 5 4 5 6 10 9 10 10 10 10 10 10 9 11 11 11 11 12 13 14 14 14
10 10 11 11 9 10 9 9 10 9 9 8 10 9 8 7 6 7 7 7 6 7 5 5 7 7 7 7 7 7 7 7 7 6 5 5 6 6 5 5 5 5 5 5 3 4 4 4 2 2 4 6 6 6 5 7 6 5 6 5 5 5 5 5 6 5 7 9 10 8 10 9 8 10 10 11 11 11 10 11 13 14 15 15 13
10 11 10 11 10 10 10 9 10 10 10 10 10 9 8 8 7 6 7 8 6 6 7 5 6 7 6 6 6 6 6 6 7 7 6 6 5 5 5 5 5 5 4 4 4 3 4 3 1 2 4 5 6 5 5 7 6 6 6 6 6 6 6 7 6 7 7 8 9 12 8 10 10 7 10 10 13 14 14 10 9 10 14 17 14
10 11 10 11 10 10 10 10 10 10 10 10 8 8 8 8 8 8 6 8 8 7 6 7 4 7 6 6 6 7 6 6 6 6 6 6 6 6 5 5 4 4 4 4 3 3 2 2 0 3 5 5 6 6 6 7 5 7 6 6 6 7 7 6 7 7 7 8 8 8 10 9 7 12 11 10 10 10 14 17 16 11 11 15 21
10 10 10 10 10 10 9 9 10 10 9 9 9 8 8 7 7 6 6 7 7 7 7 7 5 5 5 6 5 5 6 6 6 6 5 5 6 5 6 6 5 4 4 3 2 2 1 1 2 3 4 4 4 6 6 6 6 6 6 5 6 7 7 7 7 7 8 7 8 10 9 10 9 7 8 10 10 8 8 12 17 18 16 15 16
11 11 10 11 10 9 9 8 9 10 10 10 9 9 8 7 7 7 6 6 5 6 6 7 7 7 5 5 5 5 6 6 5 6 6 5 5 6 5 6 6 5 4 2 1 1 1 2 3 4 5 10 11 8 9 8 5 6 7 6 6 6 7 6 7 7 7 8 9 7 9 10 10 11 12 12 13 14 15 14 15 15 19 18 15
12 11 11 10 9 10 10 9 10 10 10 10 9 9 8 8 8 7 7 7 7 6 6 6 6 7 7 5 5 4 5 4 5 7 5 7 6 5 5 5 5 5 5 3 2 2 3 3 3 7 10 9 9 10 10 11 10 6 6 5 5 6 6 7 7 6 7 9 9 10 10 10 11 11 11 12 12 13 15 14 15 18 16 12 16
11 11 11 10 10 10 10 10 10 11 10 9 9 9 9 8 8 8 7 7 7 6 6 7 6 6 6 6 6 4 4 3 6 7 8 9 7 6 6 5 5 5 4 4 2 1 3 3 4 6 6 6 6 9 10 11 11 11 11 11 9 6 6 7 7 7 8 8 9 8 9 11 12 11 10 12 12 14 15 14 14 16 16 21 18
12 11 11 10 11 11 10 11 11 10 10 10 10 9 9 9 8 8 8 8 6 6 6 6 6 6 5 5 5 4 4 4 7 7 8 8 6 6 5 5 4 4 4 4 2 2 2 3 4 4 4 6 6 6 8 10 10 11 12 12 11 11 7 4 5 7 7 8 9 9 9 9 12 12 11 12 13 13 12 13 14 18 20 17 15
11 11 10 11 11 11 11 11 11 10 10 10 9 9 9 9 9 8 8 6 6 7 6 7 6 5 6 6 5 4 4 5 7 9 9 9 9 7 5 5 5 4 4 4 3 3 2 3 5 5 4 8 6 6 6 7 8 10 11 11 10 11 12 11 8 5 6 6 7 10 9 10 12 12 13 14 13 14 14 14 13 14 14 15 14
11 11 11 11 11 11 12 12 11 11 10 10 10 9 9 9 8 7 7 6 7 7 6 7 6 6 5 6 6 5 5 4 7 10 9 9 8 7 5 5 5 4 4 4 4 4 4 3 4 5 6 5 5 6 6 6 6 8 8 8 8 9 10 10 10 12 9 6 6 9 11 9 11 12 14 12 13 15 14 14 14 15 17 16 19
12 12 12 11 11 12 12 12 12 11 11 11 10 10 9 8 8 7 7 8 8 8 8 7 5 5 5 6 6 5 4 5 7 9 9 9 8 6 5 5 5 5 4 4 4 5 4 1 1 3 4 5 4 6 6 6 6 7 8 8 8 7 6 7 7 6 7 6 6 8 10 9 9 12 11 11 11 12 12 15 15 15 16 16 13
12 11 12 12 12 12 13 13 13 12 12 11 11 10 10 10 9 7 6 5 5 6 5 5 6 6 5 6 6 5 3 4 6 9 9 8 8 5 5 6 5 5 4 4 4 3 0 0 1 3 4 4 6 9 6 5 5 6 8 9 8 9 7 5 8 10 9 8 7 8 8 11 14 13 13 12 11 11 12 12 12 12 14 14 16
11 12 12 12 13 13 13 14 13 13 12 12 11 11 11 9 7 7 7 6 7 7 7 5 6 6 6 5 7 5 4 3 6 8 8 9 6 5 5 5 5 5 4 3 3 1 1 1 2 3 4 4 6 8 8 6 5 6 7 8 7 7 8 7 11 12 13 15 15 16 16 16 16 18 18 20 14 13 11 12 12 13 15 16 16
11 12 12 12 13 13 12 13 14 13 12 12 11 10 9 8 9 7 9 9 8 7 7 6 5 6 7 7 7 7 5 4 6 7 8 7 6 6 5 6 5 4 3 1 1 0 2 4 3 3 4 4 6 7 7 5 6 6 7 8 8 8 8 8 7 9 13 14 15 16 17 16 17 17 18 19 19 15 12 13 14 13 13 12 14
12 12 11 8 8 7 7 7 9 11 12 11 10 11 10 10 8 7 7 7 7 7 6 7 5 4 5 6 8 8 6 4 6 7 7 7 6 5 5 5 6 3 2 1 0 1 1 2 3 2 2 4 7 7 7 4 5 5 5 6 8 9 8 8 8 9 9 9 9 10 12 14 12 11 13 19 18 15 10 11 11 12 13 13 15
11 10 11 13 14 13 12 13 11 10 9 9 9 9 8 8 9 8 7 7 7 7 7 7 7 5 4 4 5 6 7 4 4 6 6 6 6 5 5 6 6 4 3 1 1 3 3 3 3 3 6 6 8 8 8 6 4 5 4 5 7 10 8 8 8 8 8 7 8 9 10 10 10 10 10 10 11 12 12 10 11 11 11 12 12
11 12 11 11 11 12 12 12 14 12 11 11 9 8 8 9 9 8 8 7 7 7 7 6 6 5 4 4 6 5 5 6 3 5 5 5 6 6 5 5 5 5 4 2 1 2 4 4 4 4 6 7 8 9 8 9 6 4 4 4 4 7 8 6 9 11 7 8 8 8 8 8 9 9 9 9 10 10 10 10 9 10 11 12 13
12 12 13 13 12 11 12 11 11 10 10 11 10 8 7 8 9 9 8 8 9 8 7 6 7 6 4 4 4 5 3 5 6 5 5 5 5 5 5 5 5 5 4 2 1 2 3 3 4 5 8 8 8 8 9 8 9 4 6 8 9 9 7 5 5 6 6 6 7 7 8 8 9 10 10 10 11 11 10 9 9 9 10 10 11
13 13 13 13 12 11 11 12 10 9 10 11 12 10 9 8 8 8 9 8 9 8 7 7 6 6 4 4 3 4 4 2 5 4 5 5 4 4 4 4 5 3 2 0 1 3 3 3 4 6 8 8 8 8 8 8 6 5 10 10 10 11 7 4 5 6 6 7 7 8 8 8 9 10 11 11 11 11 11 10 10 11 10 11 11
12 12 11 12 11 10 11 12 12 11 11 11 11 11 10 9 9 8 9 9 8 8 6 6 6 6 6 5 4 4 4 4 3 4 4 5 3 2 2 3 4 4 3 3 3 3 4 4 4 7 8 9 8 8 9 7 5 9 10 10 10 7 5 6 5 6 6 6 7 8 8 8 8 9 10 11 11 11 11 11 11 11 11 10 11
13 13 13 12 12 12 11 11 12 12 11 12 12 10 11 10 9 7 8 8 8 8 7 6 7 6 6 6 6 5 5 5 4 4 5 5 4 3 2 1 2 3 2 3 3 3 4 7 7 8 8 8 8 8 6 6 7 8 9 9 7 4 5 5 5 6 7 7 7 7 7 8 8 9 10 10 10 8 9 10 11 10 9 9 11
13 13 12 12 11 11 11 10 11 11 12 10 12 11 12 11 10 9 8 8 8 8 7 7 6 6 6 6 6 6 5 5 5 4 3 4 4 4 3 3 2 3 4 5 5 5 6 7 7 7 6 5 4 3 4 6 9 10 8 7 4 4 4 5 6 6 7 6 6 7 8 8 9 9 10 10 9 9 10 10 11 11 11 11 10
12 11 12 11 11 12 13 11 9 9 10 9 8 9 9 10 10 10 9 9 8 8 8 8 7 6 7 6 6 5 5 5 5 5 4 4 4 3 3 2 1 1 3 4 3 3 5 4 3 4 5 6 5 4 5 6 6 5 4 4 4 3 3 3 4 5 5 5 6 7 7 8 8 8 9 10 10 9 9 9 10 10 11 11 10
13 13 13 12 11 11 11 13 13 9 9 9 9 8 8 9 10 11 12 11 11 9 9 9 8 8 7 6 5 5 5 5 5 6 6 6 5 4 3 3 3 3 4 4 3 4 3 2 2 1 2 3 3 4 4 4 4 5 5 4 5 4 4 6 5 3 3 3 5 5 6 7 8 9 9 9 9 9 9 9 9 11 11 11 10
12 12 12 11 11 10 10 11 11 11 10 9 9 10 11 10 9 8 7 7 10 11 10 8 8 8 7 7 7 5 5 6 8 9 9 9 8 6 5 6 5 4 5 2 2 1 1 3 4 4 3 3 5 5 5 5 6 5 6 5 4 5 4 4 6 6 5 5 6 7 7 7 8 8 8 9 9 10 9 9 9 9 10 9 9
11 11 11 10 10 10 9 10 10 9 9 9 8 5 3 6 9 10 9 10 10 9 10 9 9 8 7 7 8 8 8 11 10 12 12 11 11 11 9 7 6 5 3 3 2 1 1 1 2 2 4 4 4 4 5 5 5 5 6 4 5 5 5 4 4 4 4 4 4 5 6 6 7 8 8 8 9 9 10 9 9 9 9 9 10
10 10 10 10 11 11 9 9 9 10 10 10 9 9 6 2 3 4 8 11 12 12 13 13 14 14 11 8 8 11 10 3 8 12 13 13 12 11 10 8 7 5 5 3 0 0 1 2 3 2 2 3 3 4 4 4 5 4 6 5 5 4 3 5 5 3 3 4 4 4 4 5 6 7 8 8 8 9 9 8 8 9 9 9 9
11 11 11 10 11 11 11 12 11 10 9 9 10 10 9 7 2 5 4 8 11 12 13 12 11 11 12 10 7 7 9 8 9 11 13 13 13 12 11 9 7 5 5 4 2 3 2 3 3 3 3 3 4 4 3 4 4 4 4 5 5 4 3 4 4 3 3 4 4 4 5 5 6 6 7 7 7 8 9 8 8 8 8 9 9
12 11 11 11 11 12 10 10 10 9 10 10 9 9 10 9 9 6 1 6 5 7 9 9 9 11 14 14 12 10 11 12 12 11 12 13 12 12 11 8 7 5 6 3 3 4 2 3 4 5 4 4 6 4 5 5 6 5 4 4 4 4 6 6 4 4 3 3 3 3 4 4 5 6 5 5 6 7 7 8 9 9 8 8 9
13 12 12 12 12 11 10 9 10 9 9 9 10 9 9 10 10 9 8 4 1 1 1 6 9 10 10 11 12 12 10 9 11 12 12 12 12 11 9 5 4 7 6 5 3 5 4 4 5 5 6 5 6 5 4 5 6 5 5 6 6 6 7 4 4 5 3 2 2 3 3 4 3 5 7 7 6 5 6 7 7 8 9 9 8
8 9 13 12 10 11 11 11 11 10 9 9 8 9 9 8 9 9 9 9 8 7 6 4 3 8 10 10 12 13 11 9 10 10 11 11 11 11 9 6 2 2 3 4 5 6 6 6 6 5 5 6 6 5 5 6 6 6 5 6 7 5 6 4 5 4 3 3 3 3 3 4 5 3 4 6 7 7 7 7 7 7 8 8 8
9 8 9 11 9 9 9 9 8 8 9 9 8 8 8 8 9 9 8 8 6 6 3 5 5 4 7 8 9 11 9 9 9 10 10 11 13 13 6 4 3 5 6 6 6 6 6 6 6 7 6 6 6 6 6 7 7 7 6 6 5 6 6 4 4 4 3 2 3 3 4 3 3 3 4 4 6 6 5 6 6 7 7 7 7
9 9 9 9 9 8 8 7 7 6 6 6 8 7 7 8 8 8 8 8 7 6 6 4 3 2 1 3 4 5 6 6 7 8 9 10 12 8 7 7 7 6 6 6 6 6 6 8 7 6 6 6 6 6 6 7 7 7 6 6 6 6 5 4 4 3 4 4 3 3 3 3 3 2 3 5 5 5 6 6 6 6 6 8 9
10 10 9 10 9 10 8 7 8 8 7 8 7 8 8 8 9 9 8 7 8 8 6 6 6 7 7 7 7 5 5 6 8 6 5 5 4 5 6 6 6 6 7 6 6 6 7 6 4 5 5 5 7 6 6 6 7 7 7 7 4 4 6 6 5 5 4 4 4 4 3 3 2 2 2 3 4 5 6 5 6 7 7 8 7
7 10 13 14 11 10 9 9 9 8 7 8 8 8 8 8 8 7 8 8 7 7 6 6 7 7 8 5 6 5 7 3 4 6 6 5 5 6 6 6 6 7 7 7 6 6 6 7 6 5 5 5 7 7 7 7 6 7 7 4 5 4 5 4 4 4 3 4 4 3 2 2 2 1 2 2 4 4 4 5 5 5 6 7 6
9 9 11 15 10 10 9 8 9 9 8 9 8 8 8 8 8 9 8 8 7 7 7 8 8 8 5 6 6 6 7 7 7 7 6 6 7 7 7 7 7 8 8 8 7 7 7 8 7 5 5 6 7 7 7 6 6 5 4 4 5 6 7 5 4 4 5 4 3 4 3 3 2 1 2 2 2 3 3 4 4 5 4 5 6
8 9 10 11 11 10 8 8 9 9 9 9 9 9 9 9 9 8 8 7 7 8 8 8 8 6 7 10 12 13 10 9 9 8 8 8 8 7 7 7 8 8 8 8 8 7 7 7 6 5 6 7 7 7 7 6 4 4 5 5 4 5 6 6 5 5 5 5 4 4 4 3 2 2 3 3 2 2 2 2 3 3 3 4 5
9 9 10 9 11 9 9 8 7 9 8 9 9 9 9 9 8 8 9 9 8 8 6 7 7 6 7 12 12 15 9 6 6 7 7 6 6 7 7 7 7 8 8 8 8 8 7 7 7 6 5 6 5 5 4 4 4 5 5 5 5 5 5 6 6 5 5 4 4 4 4 4 3 3 3 3 2 2 2 2 2 3 3 4 4
10 10 10 10 10 10 11 10 10 9 7 8 8 7 8 8 8 7 6 7 8 8 8 8 7 6 6 9 10 11 8 6 5 7 7 7 7 7 7 8 8 8 9 8 7 6 6 5 5 5 6 7 7 6 5 5 4 4 4 5 5 6 7 6 5 5 4 4 5 5 5 4 4 3 3 2 2 2 2 3 3 2 3 3 3
9 9 10 11 10 8 8 8 8 8 10 11 10 9 9 8 8 8 8 8 8 8 8 8 7 6 5 5 6 7 7 7 7 7 8 7 7 7 8 8 7 7 7 8 8 7 6 5 6 6 7 8 8 8 6 5 4 5 5 5 5 7 7 7 7 7 5 4 5 5 5 4 4 3 3 3 2 3 3 2 2 2 3 3 3
9 10 10 9 9 9 8 8 8 7 7 7 7 7 5 7 7 7 8 8 8 8 7 7 6 6 5 5 6 7 7 8 8 8 8 8 8 8 8 7 7 8 7 6 6 6 6 6 7 6 7 7 8 8 8 8 8 5 5 6 6 7 8 9 8 5 4 5 5 4 4 4 4 4 4 3 3 3 3 3 2 3 3 2 3
10 10 10 10 10 9 9 9 8 9 9 9 8 8 7 8 8 9 9 9 8 8 7 7 6 6 6 6 6 7 7 7 8 8 8 8 6 7 7 7 7 7 6 7 5 6 6 7 6 7 8 8 8 7 8 8 8 8 8 8 9 8 8 8 4 3 5 5 5 5 5 4 5 4 5 4 3 3 3 3 2 2 2 3 3
9 9 10 10 11 10 9 9 9 9 9 9 9 9 9 9 9 8 8 9 8 8 7 6 6 6 7 7 7 7 7 7 8 8 9 9 9 8 7 6 5 5 6 6 5 5 6 7 7 7 8 8 8 9 8 8 7 7 7 7 8 9 9 5 5 5 5 5 5 4 5 5 5 5 5 5 3 4 4 4 4 4 3 2 3
8 8 9 9 8 9 8 8 9 9 8 9 9 9 8 8 8 7 7 7 7 6 6 5 6 6 6 6 7 7 7 8 8 8 7 7 8 8 8 6 7 7 6 5 5 5 6 7 7 7 7 8 8 8 9 8 8 7 8 8 9 9 11 9 5 8 5 4 4 6 6 6 5 5 5 5 5 4 4 5 3 3 3 3 2
8 9 8 8 9 9 9 9 8 8 8 7 8 8 7 7 7 7 7 7 7 7 7 7 7 6 6 7 6 6 6 6 7 7 7 8 8 8 7 7 6 6 5 6 6 6 6 6 6 7 7 7 7 7 9 9 9 9 9 8 10 15 14 13 8 9 8 5 4 5 4 5 7 7 7 6 6 5 5 5 4 4 3 3 3
8 8 8 8 8 8 7 7 7 8 7 7 7 7 7 7 7 7 7 6 5 5 5 6 5 6 6 7 7 7 6 7 8 8 8 8 8 8 7 6 6 6 6 7 7 6 5 5 6 7 7 8 7 8 7 7 9 9 9 10 14 14 13 12 12 13 9 4 6 4 5 5 6 5 5 6 6 6 6 7 6 4 4 5 5
8 8 8 8 8 7 7 7 7 7 7 7 7 7 7 7 6 6 6 6 7 6 5 5 5 6 7 8 7 6 7 8 8 7 7 7 7 7 6 5 7 6 6 6 6 6 6 6 6 7 7 7 7 7 7 7 6 7 11 15 15 13 12 10 9 11 13 7 2 3 4 6 6 7 7 6 5 6 8 8 6 5 5 5 4
Wind_Direction
124 124 124 126 128 130 129 129 129 124 121 119 117 118 119 118 119 122 111 114 121 114 110 111 109 107 105 101 110 115 118 117 115 115 110 110 106 105 100 93 94 95 93 84 75 80 77 77 63 45 38 49 18 0 3 3 352 353 341 336 325 317 286 279 286 292 289 272 297 305 309 308 303 305 306 306 307 307 306 304 307 302 304 297 300
130 128 126 129 130 129 128 126 125 123 118 117 118 120 121 122 125 118 116 116 120 117 114 111 107 108 104 106 110 116 118 120 126 121 119 116 110 107 104 96 98 98 100 95 81 72 82 81 55 36 17 48 16 15 9 355 358 340 344 345 325 322 313 291 286 294 302 312 305 301 301 307 302 302 307 311 306 307 307 308 297 302 298 303 298
132 131 129 128 128 128 128 128 126 122 118 119 120 122 122 122 123 122 120 114 99 114 120 116 112 108 105 108 117 116 122 124 129 125 124 122 120 117 116 117 116 114 106 107 106 105 79 74 53 20 358 33 18 9 360 360 347 341 333 338 330 317 317 297 300 303 302 304 308 310 312 315 307 308 309 300 300 301 305 308 312 309 302 297 297
133 129 126 127 130 130 129 127 123 123 121 125 125 125 124 121 122 119 119 118 115 98 106 115 114 114 112 112 118 123 122 124 124 127 130 126 126 127 125 121 119 119 121 125 127 111 106 83 29 9 24 36 16 5 359 341 350 344 336 333 326 320 316 316 303 295 301 306 317 314 313 315 304 300 299 298 300 308 307 304 305 305 304 305 301
134 133 133 131 133 131 129 129 126 125 125 128 127 127 126 126 127 126 123 118 117 117 101 106 116 119 123 129 126 127 133 131 125 122 118 121 126 130 132 128 128 126 133 146 144 126 115 107 150 9 30 32 8 6 348 350 340 346 339 332 330 324 317 318 311 303 300 303 302 303 305 298 294 299 305 314 310 304 299 311 314 312 305 304 302
137 136 137 135 137 136 134 132 132 132 132 131 132 132 131 131 130 125 130 124 116 114 119 116 120 120 120 126 123 125 129 129 128 129 121 114 112 119 127 128 129 137 144 146 142 151 137 155 181 37 22 19 355 344 344 346 339 343 340 332 333 327 322 317 315 310 306 297 305 308 309 314 313 303 312 317 322 317 316 306 294 291 308 310 311
142 140 141 140 141 143 142 139 137 137 136 135 133 131 133 135 132 131 130 128 128 124 115 114 112 120 123 125 127 129 125 123 123 121 119 119 125 127 124 119 127 139 153 153 163 182 174 171 231 13 354 342 340 339 342 350 348 337 337 333 329 329 324 322 321 316 313 309 304 295 302 306 305 316 320 320 304 311 316 325 320 318 308 318 322
142 142 143 144 146 146 143 139 137 136 134 134 134 133 131 130 127 124 125 125 127 133 136 129 126 116 122 119 124 127 122 119 115 116 117 128 127 129 138 137 138 131 129 125 174 206 242 301 331 327 329 303 323 343 5 352 346 336 335 334 328 326 324 321 319 320 317 314 313 313 316 308 314 289 302 309 316 316 330 322 319 318 317 320 319
146 147 148 149 151 144 137 137 134 135 134 133 133 134 131 128 125 124 121 117 114 118 123 129 128 112 105 115 118 119 126 133 140 137 127 115 123 131 142 146 145 135 109 87 23 325 333 338 349 304 345 4 360 358 358 360 355 335 325 328 325 326 321 320 321 319 315 315 310 313 313 320 318 324 330 337 338 332 324 320 306 304 319 318 320
149 152 153 152 145 141 140 139 140 137 138 138 137 134 132 131 129 125 121 121 122 124 124 123 124 127 122 117 115 119 125 136 145 152 146 139 131 123 129 141 136 134 134 106 34 9 9 18 328 8 12 359 358 358 354 351 348 339 313 319 323 324 323 322 322 322 321 321 323 325 325 325 324 328 323 324 324 321 319 316 311 316 317 319 317
154 154 154 151 145 141 141 142 141 143 141 136 135 135 135 133 129 126 125 129 132 134 130 129 126 125 128 131 126 124 129 140 135 143 141 132 127 129 136 141 140 142 135 134 126 12 356 348 360 8 7 355 355 358 350 347 342 334 328 326 329 328 322 323 314 323 325 318 317 319 323 315 319 321 316 321 328 327 319 313 311 319 330 332 330
157 159 153 150 147 147 145 144 143 143 141 140 139 138 134 133 133 133 132 133 131 124 128 130 127 126 122 123 123 129 126 130 143 142 141 138 133 129 134 142 148 149 144 134 134 78 19 350 343 356 350 0 4 353 346 339 335 333 328 328 329 325 324 311 311 318 322 323 319 321 314 318 316 317 320 325 326 319 311 313 314 327 327 329 325
158 157 156 154 152 148 147 146 145 145 146 141 138 137 136 134 135 138 143 144 131 133 139 132 130 132 132 131 123 122 119 133 143 134 131 132 128 123 119 128 136 140 131 126 121 105 49 11 341 347 352 6 3 348 346 331 329 326 325 325 325 331 330 324 318 299 310 300 317 310 320 320 317 317 320 320 316 313 318 319 317 319 323 320 319
161 159 159 159 155 152 150 147 148 148 145 141 139 139 140 143 142 139 136 138 137 134 136 134 133 137 142 131 126 125 122 137 137 124 123 123 125 117 119 117 110 120 125 130 122 104 77 48 353 338 344 360 340 350 337 332 327 328 332 329 325 324 324 324 319 329 326 317 311 309 307 319 310 307 312 316 319 322 321 317 318 322 325 317 311
162 161 163 160 155 154 151 150 149 148 147 144 142 142 142 138 142 149 151 155 152 152 150 143 143 138 136 131 127 124 126 131 131 123 123 120 116 111 111 105 101 103 108 105 109 96 86 103 301 321 330 338 340 351 338 330 331 323 322 323 323 313 308 304 326 321 321 314 307 295 298 304 300 304 307 314 314 313 314 312 317 319 312 304 300
162 159 160 162 160 158 155 153 151 150 150 149 146 145 146 150 150 149 139 138 129 125 123 128 138 143 145 138 125 123 121 134 138 127 127 125 119 106 119 118 119 115 104 96 81 62 40 189 63 1 352 334 338 344 340 327 327 328 323 324 320 323 312 307 317 323 318 314 308 305 304 306 309 309 314 316 315 312 310 306 304 315 318 320 327
164 165 163 164 164 163 160 154 153 154 153 151 149 149 148 147 147 143 140 152 145 147 152 145 145 147 147 145 131 131 135 146 144 132 131 131 118 116 119 113 116 115 109 80 58 16 268 148 93 27 351 337 338 335 334 335 333 330 329 319 317 310 323 327 333 329 326 322 320 317 315 315 317 319 318 323 325 322 319 324 331 332 329 330 329
168 166 166 167 167 163 158 154 155 154 155 157 154 152 151 147 152 156 153 156 154 154 148 135 148 158 152 155 150 140 148 155 145 132 135 140 139 137 138 124 112 106 100 35 66 112 324 37 38 57 349 333 330 324 331 337 333 327 325 326 327 330 326 332 328 326 329 328 328 328 325 324 326 323 323 328 331 337 344 340 331 331 325 322 322
167 167 162 138 99 106 128 139 148 156 159 156 153 154 156 155 155 150 154 148 146 143 136 138 141 152 162 157 151 136 143 143 134 128 129 135 131 135 134 129 123 105 92 82 153 116 5 340 355 6 347 321 324 327 330 327 314 315 320 319 325 330 329 323 323 323 330 332 326 331 327 329 327 325 326 328 332 339 342 331 329 335 326 323 325
161 148 142 153 163 156 150 150 154 162 161 152 156 156 150 143 147 147 152 148 143 144 139 140 144 161 173 157 142 142 138 140 121 122 126 129 134 133 141 129 142 144 120 89 6 342 6 346 326 343 344 342 332 328 320 317 301 303 314 332 328 325 322 319 316 324 323 321 313 322 316 315 321 325 325 327 333 340 338 332 333 333 327 325 326
147 148 149 145 147 159 163 161 159 160 158 157 157 155 155 150 146 147 146 142 135 138 142 143 142 152 157 151 145 149 144 136 126 116 118 128 143 136 132 132 143 136 138 127 59 3 323 332 315 321 332 328 325 320 312 309 308 298 300 306 302 293 304 312 318 329 320 320 322 319 317 320 323 322 322 325 330 331 332 331 329 333 333 332 329
146 149 153 159 162 157 158 155 156 154 153 150 154 158 158 152 151 151 147 147 148 147 147 144 144 153 160 151 157 163 170 146 151 131 122 126 139 143 128 159 157 135 138 80 346 283 265 288 301 310 318 317 313 308 306 305 312 308 306 308 311 328 333 314 310 319 323 328 330 325 325 330 330 328 327 330 331 328 327 328 332 331 333 331 328
152 155 157 159 162 162 158 153 149 151 159 160 156 158 159 156 154 150 148 149 150 152 152 149 147 158 175 192 194 180 166 135 146 143 136 126 126 149 159 149 171 155 133 133 238 260 267 278 276 292 302 305 302 301 299 301 306 298 310 322 327 334 330 336 327 330 336 336 334 335 331 331 333 331 330 329 327 326 326 331 330 332 329 334 327
153 154 157 157 157 157 155 155 156 159 163 158 159 156 163 162 157 158 156 155 157 158 161 153 154 164 182 201 212 220 192 154 151 156 150 150 145 148 161 172 167 178 163 204 227 233 276 269 273 294 300 299 299 297 292 294 286 301 314 318 328 336 335 336 342 342 330 337 342 334 331 329 324 321 328 327 325 325 327 329 331 330 331 331 333
155 158 162 163 162 164 166 165 159 164 169 162 159 163 162 162 159 166 159 163 164 166 167 163 167 182 184 196 207 211 200 178 175 177 175 164 167 177 191 203 234 160 202 249 235 239 256 273 288 295 296 295 292 288 289 301 306 310 308 314 326 339 338 336 336 334 348 348 334 324 324 326 320 308 304 311 311 311 324 325 330 332 329 326 331
160 162 162 162 161 160 163 163 166 168 169 171 165 165 164 169 166 165 170 171 172 170 168 169 175 179 195 200 205 205 194 188 192 182 175 179 172 180 186 194 227 220 239 266 269 276 282 282 283 291 292 288 288 296 318 300 311 306 304 313 322 318 328 329 333 347 341 328 326 328 321 315 319 315 309 311 320 332 335 332 329 336 338 338 335
158 158 161 160 162 167 167 167 165 169 173 170 164 164 166 169 167 169 173 173 176 178 171 174 177 184 197 207 208 198 192 194 197 194 188 187 200 194 180 225 239 276 273 268 272 275 269 263 270 278 282 278 278 285 280 299 308 314 317 314 306 300 296 312 316 317 316 319 323 320 312 313 307 315 329 329 327 330 338 332 331 335 338 336 334
161 165 165 164 168 170 168 161 159 167 176 171 164 164 172 172 173 179 180 180 178 180 177 179 183 185 196 200 193 191 207 205 205 200 200 195 202 194 193 208 216 214 239 241 231 254 249 263 287 353 329 343 339 331 327 323 311 299 304 307 301 298 294 288 273 254 299 312 299 303 315 327 330 329 325 328 327 328 334 336 343 334 337 336 347
160 162 163 163 168 171 169 169 172 172 171 174 174 172 171 177 184 188 194 184 184 179 179 181 183 190 187 183 180 195 206 218 226 202 195 186 183 185 198 212 210 217 221 224 267 219 8 18 13 350 6 345 326 315 307 316 313 297 293 299 304 311 314 354 340 329 327 330 332 330 324 326 324 326 328 325 329 330 335 334 339 340 333 345 352
159 164 165 167 165 168 171 172 173 170 169 172 166 158 160 186 188 176 181 185 180 176 171 180 186 179 185 203 189 180 194 217 213 184 189 187 193 190 193 184 188 192 157 159 151 13 39 350 303 301 308 320 307 302 294 301 300 309 302 303 306 302 312 311 304 316 322 316 314 324 328 326 322 331 332 331 321 326 336 345 337 341 344 349 350
163 163 166 171 172 172 167 165 169 167 171 172 165 166 145 60 16 203 188 171 174 181 193 192 183 185 182 199 221 238 241 208 161 183 188 188 189 191 187 186 182 170 155 126 44 122 259 310 287 288 265 254 269 270 279 287 287 294 292 291 284 295 296 285 292 316 316 317 323 323 320 325 324 327 329 328 325 322 329 337 340 344 349 344 347
167 171 173 167 164 166 167 171 173 173 174 174 175 168 163 159 150 23 56 187 193 189 195 203 198 196 204 206 195 226 237 228 188 184 191 190 190 189 187 181 170 157 190 188 234 261 201 235 259 266 264 280 267 267 266 269 279 275 288 307 301 297 296 297 305 314 306 315 323 325 327 324 325 324 323 326 327 328 335 336 345 346 344 346 350
169 168 168 167 170 173 172 170 172 172 172 176 181 177 169 172 167 178 32 59 130 186 210 217 211 207 211 220 212 205 205 207 201 190 189 191 189 188 179 163 155 156 136 150 209 250 243 220 240 252 248 253 262 264 267 261 267 273 263 270 282 285 284 284 297 276 278 284 298 303 316 319 321 321 320 328 335 334 333 338 341 340 343 344 342
175 170 170 171 170 172 173 171 174 175 175 177 182 182 180 174 175 171 166 166 75 49 214 211 212 217 227 225 226 231 233 221 206 196 187 187 184 173 151 136 141 170 181 210 201 233 241 231 232 239 245 243 251 260 264 266 255 263 274 261 256 269 277 293 287 281 293 299 306 303 308 313 324 329 332 328 329 327 335 338 340 345 342 345 342
168 167 164 165 169 170 173 174 175 172 164 174 182 184 178 175 169 171 178 184 192 196 209 217 217 197 210 221 224 225 222 212 203 202 190 179 161 140 115 106 130 143 216 231 224 233 234 232 240 245 234 247 249 242 257 265 268 263 265 275 277 274 278 281 276 277 285 298 302 308 314 316 318 322 323 325 329 337 340 337 338 341 338 338 342
163 160 167 168 165 171 174 169 164 164 169 177 179 181 170 165 165 178 178 174 177 189 204 206 196 215 222 231 217 210 202 197 191 188 183 161 149 138 138 173 199 222 224 224 221 233 222 238 233 246 239 244 250 251 238 253 257 260 261 262 274 281 282 285 291 293 281 268 272 286 304 305 318 327 323 320 327 325 329 333 333 332 334 337 335
164 165 169 170 163 160 158 152 161 166 160 157 161 169 174 168 165 163 168 173 180 193 193 171 127 142 174 216 173 139 143 145 144 139 146 153 159 160 181 177 196 208 220 236 227 231 233 235 218 241 243 242 247 245 254 252 257 259 265 256 253 265 266 268 275 278 288 286 281 283 284 299 309 322 329 321 321 326 329 332 331 332 334 340 338
169 167 167 160 156 158 153 154 148 143 151 161 171 173 175 170 170 169 168 180 190 195 194 194 201 197 202 213 168 166 132 115 111 101 104 116 146 184 191 195 192 202 227 236 225 211 233 244 220 220 239 229 245 246 240 256 255 252 258 267 257 247 266 274 274 268 264 262 266 272 278 287 295 301 311 311 314 320 324 330 334 335 334 345 352
156 155 154 154 157 157 155 153 154 155 159 163 173 172 179 176 174 175 181 192 194 195 196 188 197 205 214 161 156 142 123 150 182 190 191 196 196 192 190 196 199 216 228 238 232 214 230 243 239 220 232 237 234 243 237 250 257 254 254 258 268 268 266 260 265 263 262 260 265 253 258 266 272 271 283 296 301 314 316 317 323 333 337 337 339
149 152 157 155 152 159 157 158 154 159 165 168 171 173 172 180 178 180 181 177 186 193 195 195 202 212 187 144 158 151 187 198 205 204 200 198 200 201 195 200 206 216 224 232 231 225 223 239 241 235 236 239 234 244 237 239 246 256 261 250 255 269 266 251 255 264 266 260 260 263 254 258 259 262 263 248 272 293 303 312 317 323 323 323 325
151 150 155 161 156 154 153 152 162 170 170 176 175 176 179 181 182 178 184 189 193 194 200 206 209 203 180 194 180 179 190 202 206 206 206 203 203 201 203 211 213 221 225 231 237 233 228 237 239 233 238 242 238 237 243 236 243 245 251 253 251 247 262 267 257 255 260 260 249 256 254 246 250 258 287 283 262 275 278 280 299 309 316 322 327
149 150 156 158 153 156 157 165 165 166 168 171 177 184 180 184 183 187 190 194 193 197 202 211 215 205 200 191 188 195 204 220 206 211 216 214 211 213 212 216 217 220 224 226 229 231 231 229 239 233 236 244 236 237 231 243 234 237 242 246 250 253 258 256 254 248 247 251 255 249 254 249 249 233 236 257 283 286 291 298 300 306 313 324 332
156 158 159 155 160 164 166 167 163 162 162 174 185 184 182 181 191 192 192 195 197 194 203 212 220 204 205 201 197 192 212 220 212 214 216 215 214 217 214 218 218 219 223 230 231 227 228 231 238 236 234 238 236 237 231 239 233 227 236 241 248 250 254 260 261 248 233 241 250 250 249 245 246 246 245 240 245 258 275 288 297 307 311 315 319
154 155 161 164 164 158 157 158 162 164 168 182 186 186 187 188 191 191 193 201 199 198 204 215 215 204 210 173 174 190 215 216 217 217 216 216 216 218 221 223 223 223 226 229 232 222 221 228 239 246 243 243 241 234 232 236 227 231 237 239 245 252 254 257 256 256 234 235 245 249 242 238 236 241 248 246 233 266 270 278 282 296 311 310 315
156 160 158 158 163 163 159 159 154 158 170 175 182 183 183 189 193 197 197 200 200 201 208 211 202 201 199 183 191 202 212 215 220 222 222 219 221 225 227 228 226 226 228 232 228 212 214 223 231 242 251 248 236 229 232 231 221 218 225 229 239 251 252 249 249 248 226 229 240 243 245 233 240 229 240 236 228 234 255 257 270 301 295 297 312
163 164 164 167 170 173 171 167 163 166 172 176 179 182 186 194 200 201 203 202 196 197 204 203 201 205 208 204 199 203 211 215 222 223 226 227 228 232 231 231 231 229 230 234 227 210 216 218 222 229 238 248 248 234 230 230 226 218 219 211 226 240 250 256 257 240 228 223 229 230 243 242 242 234 237 237 232 225 239 257 241 236 251 279 285
165 169 170 172 174 176 176 169 169 176 179 181 186 187 190 197 202 202 201 201 196 198 202 200 194 207 213 214 210 213 210 211 220 221 223 226 227 231 235 235 234 237 236 234 226 219 219 220 222 226 235 244 253 255 251 239 230 222 214 220 226 237 245 248 235 231 237 227 221 224 232 236 245 242 237 229 234 229 229 240 237 251 243 251 267
168 167 174 172 169 168 171 167 177 176 183 184 189 192 192 195 195 195 195 197 200 197 200 199 205 215 216 222 220 218 213 217 223 226 229 231 232 231 231 230 230 233 236 237 230 222 221 223 224 225 233 240 244 250 254 253 247 236 231 224 223 229 240 239 228 231 225 213 207 220 228 234 240 241 240 228 234 226 234 245 234 232 239 245 247
162 165 165 167 170 168 168 172 172 179 187 182 183 189 186 183 190 196 198 197 197 198 198 203 214 217 221 229 224 222 218 216 222 227 228 231 231 232 228 229 231 234 231 238 237 227 226 225 224 226 230 236 237 243 250 254 254 253 248 246 244 241 242 239 233 243 227 213 209 210 221 224 238 245 241 236 236 225 233 244 244 247 247 241 241
160 161 162 163 165 167 165 165 168 176 179 178 177 183 181 186 191 195 198 197 200 202 208 206 217 222 225 230 227 225 216 217 222 225 225 227 228 228 227 226 229 229 227 234 240 237 232 229 227 228 230 234 236 239 242 248 251 253 254 253 254 252 249 243 236 240 233 206 213 207 210 225 227 237 236 235 237 235 234 235 236 234 241 246 248
155 154 158 164 162 158 157 160 164 169 168 170 173 176 179 185 192 193 192 191 199 204 205 211 225 230 231 230 228 223 220 223 224 223 223 227 228 225 224 226 229 231 233 236 244 242 238 233 232 231 232 234 238 240 242 245 251 254 253 256 261 266 266 257 247 246 231 227 234 227 219 228 234 239 239 236 226 228 238 241 234 228 236 235 246